[[{"header":{"parameterUnit":"m.s-1","parameterCategory":1,"la1":30.2991,"la2":30.254,"lo1":-89.0895,"lo2":-89.0444,"dy":0.0017,"dx":0.0017,"nx":28,"ny":28,"refTime":"2024-05-06T03:00:00:Z","depth":0,"parameterNumber":2,"parameterNumberName":"U-component_of_WINDS"},"data":[0,0,0,0,0,0,0,0,0,0,0,0,0,0,0,0,0,0,0,0,0,0,0,0,0,0,0,0,0,0,0,0,0,0,0,0,0,0,0,0,0,0,0,0,0,0,0,0,0,0,0,0,0,0,0,0,0,0,-3.1764,-3.1763,0,-3.1677,-3.1676,-3.1675,-3.1602,-3.1602,-3.1601,-3.16,-3.1507,-3.1505,-3.1503,0,0,0,0,0,0,0,0,0,0,0,0,0,-3.1864,-3.1863,-3.1764,-3.1763,-3.1762,-3.1677,-3.1676,-3.1674,-3.1602,-3.1601,-3.1601,-3.16,-3.1507,-3.1505,-3.1503,0,0,0,0,0,0,0,0,0,0,0,0,0,-3.1803,-3.1862,-3.1764,-3.1716,-3.171,-3.1677,-3.1676,-3.1674,-3.1603,-3.1601,-3.16,-3.1599,-3.1508,-3.1505,-3.1503,-3.1509,0,0,-3.1495,-3.1493,0,0,0,0,0,0,0,0,-3.1807,-3.18,-3.1724,-3.1719,-3.1713,-3.1649,-3.1677,-3.1619,-3.1603,-3.1643,-3.16,-3.1599,-3.1555,-3.1548,-3.1534,-3.1505,-3.1501,-3.1494,-3.1493,-3.1492,-3.1491,0,0,0,0,0,0,0,-3.1811,-3.1803,-3.1729,-3.1723,-3.1716,-3.1697,-3.1687,-3.1666,-3.1606,-3.164,-3.1634,-3.1625,-3.1552,-3.1537,-3.1532,-3.15,-3.1494,-3.1492,-3.149,-3.1489,-3.1472,-3.1473,0,0,0,0,0,0,-3.1823,-3.1807,-3.1732,-3.1727,-3.1758,-3.1696,-3.1685,-3.1671,-3.1606,-3.1596,-3.1626,-3.1622,-3.1542,-3.1535,-3.1528,-3.1531,-3.1492,-3.1489,-3.1488,-3.1471,-3.1472,-3.1473,0,0,0,0,0,0,-3.1826,-3.1817,-3.1735,-3.1765,-3.1753,-3.1696,-3.168,-3.167,-3.1655,-3.1596,-3.1585,-3.1623,-3.1541,-3.1532,-3.1515,-3.1527,-3.1488,-3.1486,-3.1469,-3.1471,-3.1473,-3.1539,0,0,0,0,0,0,-3.1829,-3.1819,-3.1821,-3.1766,-3.1752,-3.1725,-3.1681,-3.1669,-3.1651,-3.1645,-3.159,-3.1579,-3.1539,-3.1519,-3.1512,-3.1523,-3.1483,-3.1468,-3.147,-3.1472,-3.1535,-3.1542,-3.1549,0,0,0,0,0,-3.1833,-3.1842,-3.1822,-3.1813,-3.1754,-3.1726,-3.1718,-3.1672,-3.1652,-3.1654,-3.1617,-3.1581,-3.1528,-3.1518,-3.151,-3.152,-3.1467,-3.1469,-3.1472,-3.1532,-3.1541,-3.1548,0,0,0,0,0,0,-3.1898,-3.1834,-3.181,-3.1802,-3.177,-3.1714,-3.1714,-3.1683,-3.1655,-3.165,-3.1594,-3.1582,-3.1572,-3.1544,-3.1535,-3.1523,-3.1492,-3.1493,-3.1541,-3.1549,-3.1556,-3.1562,-3.1481,0,0,0,0,0,-3.1912,-3.1896,-3.184,-3.1838,-3.1823,-3.1772,-3.1758,-3.1726,-3.169,-3.1675,-3.1636,-3.1602,-3.1577,-3.1562,-3.1536,-3.1531,-3.1518,-3.1534,-3.1541,-3.1547,-3.1548,-3.1544,-3.155,-3.1481,-3.1481,-3.1481,0,0,-3.194,-3.1903,-3.1895,-3.185,-3.1822,-3.1805,-3.1761,-3.1744,-3.1731,-3.1672,-3.1654,-3.1625,-3.1583,-3.1573,-3.1566,-3.1549,-3.1564,-3.155,-3.1555,-3.1553,-3.1547,-3.1553,-3.1559,-3.1483,-3.1483,-3.1483,0,0,-3.1982,-3.1952,-3.1948,-3.1921,-3.1879,-3.1845,-3.1844,-3.1792,-3.1771,-3.1753,-3.1708,-3.1691,-3.165,-3.1622,-3.1602,-3.1636,-3.1602,-3.1629,-3.1663,-3.166,-3.1665,-3.167,-3.1681,-3.1686,-3.163,-3.163,-3.163,0,-3.2021,-3.1995,-3.1949,-3.1936,-3.1917,-3.1866,-3.186,-3.1836,-3.1787,-3.1775,-3.1757,-3.1705,-3.1673,-3.1655,-3.1664,-3.165,-3.1646,-3.1634,-3.1669,-3.1673,-3.1676,-3.1686,-3.1691,-3.1634,-3.1633,-3.1633,-3.1633,0,-3.2045,-3.2028,-3.2029,-3.1985,-3.1967,-3.1958,-3.191,-3.1897,-3.1867,-3.1835,-3.1817,-3.1777,-3.1742,-3.1736,-3.1706,-3.1715,-3.1706,-3.1679,-3.1647,-3.1687,-3.1696,-3.1699,-3.1639,-3.1637,-3.1636,-3.1636,0,0,-3.2124,-3.2056,-3.2058,-3.2037,-3.1988,-3.1973,-3.1962,-3.193,-3.192,-3.1888,-3.1877,-3.1844,-3.182,-3.1797,-3.1764,-3.1762,-3.1791,-3.1735,-3.1733,-3.1746,-3.1797,-3.1817,-3.1822,-3.1769,-3.1769,-3.177,-3.1801,0,-3.2157,-3.2135,-3.2094,-3.2085,-3.2068,-3.202,-3.201,-3.1978,-3.1949,-3.1929,-3.1895,-3.1873,-3.1843,-3.1829,-3.1825,-3.1788,-3.18,-3.1786,-3.1756,-3.1756,-3.1768,-3.1827,-3.1847,-3.1878,-3.1804,-3.1804,-3.1805,0,-3.2193,-3.2166,-3.2156,-3.2109,-3.21,-3.2092,-3.206,-3.2042,-3.2006,-3.1984,-3.1961,-3.1925,-3.191,-3.1882,-3.186,-3.1851,-3.1837,-3.1818,-3.1818,-3.1812,-3.1782,-3.1822,-3.1887,-3.1891,-3.181,-3.1809,-3.1809,0,-3.2251,-3.2212,-3.2201,-3.2185,-3.213,-3.2126,-3.2102,-3.2065,-3.2048,-3.202,-3.2009,-3.1978,-3.1961,-3.1939,-3.1895,-3.1879,-3.1878,-3.1847,-3.1859,-3.186,-3.186,-3.186,-3.1922,-3.1853,-3.1853,-3.1852,-3.1852,0,-3.2292,-3.2287,-3.2227,-3.222,-3.2213,-3.2166,-3.2161,-3.2133,-3.21,-3.2086,-3.2042,-3.203,-3.1974,-3.1956,-3.1922,-3.1909,-3.1901,-3.1883,-3.1874,-3.1886,-3.1889,-3.1875,-3.1872,-3.1854,-3.1853,-3.1853,-3.1853,0,-3.2355,-3.2314,-3.2299,-3.2249,-3.2236,-3.2234,-3.219,-3.2181,-3.215,-3.2133,-3.2126,-3.2076,-3.2052,-3.2007,-3.197,-3.1947,-3.1941,-3.1926,-3.1954,-3.1948,-3.1963,-3.1962,-3.2017,-3.2022,-3.1951,-3.1952,-3.1952,0,-3.2383,-3.2379,-3.2329,-3.2318,-3.2296,-3.2278,-3.2262,-3.2216,-3.22,-3.2159,-3.2155,-3.2128,-3.2103,-3.2067,-3.2026,-3.1997,-3.1981,-3.2002,-3.1976,-3.1989,-3.198,-3.1981,-3.198,-3.2008,-3.2009,-3.201,-3.201,0,-3.2438,-3.2419,-3.2397,-3.237,-3.2352,-3.2327,-3.23,-3.2293,-3.224,-3.2225,-3.2201,-3.2182,-3.2145,-3.2118,-3.2084,-3.2059,-3.2026,-3.2019,-3.2021,-3.2033,-3.2049,-3.204,-3.1969,-3.2018,-3.2017,-3.2016,-3.2016,-3.2016,-3.2484,-3.2478,-3.2443,-3.242,-3.2396,-3.2372,-3.2362,-3.233,-3.2309,-3.2276,-3.225,-3.2228,-3.2191,-3.2143,-3.212,-3.2101,-3.2085,-3.2087,-3.2087,-3.2088,-3.2093,-3.2053,-3.2094,-3.2094,-3.2094,-3.2094,-3.2093,0,-3.2536,-3.2511,-3.2492,-3.2456,-3.2439,-3.2412,-3.2381,-3.2368,-3.2349,-3.2319,-3.2296,-3.2269,-3.2243,-3.2201,-3.2172,-3.2165,-3.2149,-3.2159,-3.2158,-3.2153,-3.2109,-3.2111,-3.2172,-3.2172,-3.2172,-3.2172,-3.2172,-3.2172,-3.2561,-3.255,-3.2527,-3.2503,-3.2477,-3.2456,-3.2441,-3.2419,-3.2394,-3.2366,-3.2345,-3.2319,-3.2284,-3.2252,-3.2227,-3.2215,-3.2206,-3.2221,-3.2204,-3.2163,-3.2156,-3.2149,-3.215,-3.2219,-3.2219,-3.2249,-3.225,-3.225]},{"header":{"parameterUnit":"m.s-1","parameterCategory":1,"la1":30.2991,"la2":30.254,"lo1":-89.0895,"lo2":-89.0444,"dy":0.0017,"dx":0.0017,"nx":28,"ny":28,"refTime":"2024-05-06T03:00:00:Z","depth":0,"parameterNumber":3,"parameterNumberName":"V-component_of_WINDS"},"data":[0,0,0,0,0,0,0,0,0,0,0,0,0,0,0,0,0,0,0,0,0,0,0,0,0,0,0,0,0,0,0,0,0,0,0,0,0,0,0,0,0,0,0,0,0,0,0,0,0,0,0,0,0,0,0,0,0,0,4.4194,4.4193,0,4.4145,4.4145,4.4144,4.4153,4.4154,4.4155,4.4155,4.4098,4.4096,4.4094,0,0,0,0,0,0,0,0,0,0,0,0,0,4.4289,4.4287,4.4194,4.4193,4.4193,4.4145,4.4145,4.4144,4.4153,4.4154,4.4155,4.4156,4.4099,4.4096,4.4094,0,0,0,0,0,0,0,0,0,0,0,0,0,4.4244,4.4287,4.4194,4.4192,4.4191,4.4146,4.4145,4.4144,4.4152,4.4154,4.4155,4.4156,4.41,4.4097,4.4093,4.4045,0,0,4.4083,4.4081,0,0,0,0,0,0,0,0,4.4247,4.4241,4.4193,4.4192,4.4191,4.4157,4.4157,4.411,4.4152,4.4167,4.4155,4.4157,4.4116,4.4112,4.4099,4.4043,4.404,4.4082,4.408,4.4079,4.4078,0,0,0,0,0,0,0,4.425,4.4243,4.4175,4.4192,4.4191,4.4191,4.4186,4.4148,4.4134,4.4166,4.4166,4.4161,4.4116,4.4103,4.4098,4.4039,4.4082,4.4079,4.4077,4.4076,4.3942,4.394,0,0,0,0,0,0,4.4255,4.4246,4.4176,4.4173,4.4223,4.4188,4.4183,4.4166,4.4135,4.4132,4.416,4.4161,4.4108,4.4102,4.4096,4.4038,4.4079,4.4075,4.4073,4.3943,4.3941,4.394,0,0,0,0,0,0,4.4257,4.4249,4.4178,4.421,4.4201,4.4185,4.4166,4.4164,4.4151,4.4131,4.4127,4.4149,4.4109,4.4101,4.4059,4.4036,4.4074,4.4071,4.3945,4.3942,4.394,4.3922,0,0,0,0,0,0,4.426,4.4249,4.4232,4.4209,4.4199,4.4143,4.4165,4.4163,4.4146,4.4148,4.412,4.4116,4.4109,4.4064,4.4055,4.4032,4.4068,4.3947,4.3944,4.3941,4.3925,4.392,4.3915,0,0,0,0,0,4.4263,4.4227,4.4231,4.4223,4.4177,4.4142,4.4136,4.413,4.4144,4.4126,4.4113,4.4117,4.4041,4.4059,4.405,4.4025,4.3948,4.3945,4.3941,4.3927,4.3921,4.3915,0,0,0,0,0,0,4.4244,4.4224,4.4228,4.4184,4.4165,4.4143,4.412,4.4124,4.4098,4.4101,4.4093,4.4087,4.4044,4.403,4.4052,4.3978,4.3996,4.3991,4.3988,4.3982,4.3978,4.3981,4.4065,0,0,0,0,0,4.4236,4.4211,4.4193,4.4156,4.4146,4.4135,4.4119,4.4117,4.4096,4.4087,4.4071,4.4048,4.4019,4.4,4.3972,4.3923,4.3917,4.3902,4.3897,4.3893,4.3888,4.3862,4.3855,4.3929,4.3929,4.3929,0,0,4.4216,4.4202,4.4186,4.4152,4.4137,4.4109,4.4128,4.4097,4.4076,4.4081,4.4041,4.4029,4.4003,4.3958,4.3937,4.3945,4.3867,4.3889,4.3886,4.3883,4.3858,4.3851,4.3845,4.3927,4.3927,4.3927,0,0,4.4167,4.4154,4.4123,4.4108,4.4086,4.4079,4.4072,4.405,4.4042,4.4003,4.4006,4.398,4.393,4.3912,4.3897,4.3843,4.3846,4.3834,4.3809,4.3784,4.3778,4.3773,4.3753,4.3747,4.383,4.3829,4.3829,0,4.4145,4.4106,4.4105,4.4075,4.406,4.4067,4.4034,4.4018,4.3987,4.3976,4.3986,4.3925,4.3908,4.3859,4.3846,4.3833,4.3824,4.3837,4.3779,4.3774,4.3769,4.3751,4.3743,4.3828,4.3828,4.3828,4.3829,0,4.4081,4.4053,4.403,4.4003,4.3985,4.3954,4.3946,4.3928,4.3928,4.3919,4.3879,4.3859,4.3828,4.3816,4.3815,4.3767,4.3773,4.3781,4.3799,4.3761,4.3743,4.3736,4.3826,4.3827,4.3827,4.3827,0,0,4.4016,4.3992,4.3983,4.3972,4.3949,4.3927,4.3896,4.3868,4.3852,4.3831,4.3804,4.3763,4.3771,4.3753,4.375,4.3728,4.3687,4.3739,4.3738,4.373,4.3633,4.3626,4.3618,4.3689,4.3688,4.3687,4.3635,0,4.3965,4.3913,4.3912,4.3863,4.3838,4.3845,4.3817,4.3799,4.3791,4.3767,4.3757,4.3728,4.3741,4.3731,4.3709,4.3697,4.3667,4.37,4.3662,4.3661,4.3668,4.3609,4.3602,4.3553,4.3628,4.3627,4.3626,0,4.3898,4.3878,4.3828,4.3811,4.38,4.3776,4.3751,4.3728,4.3708,4.3703,4.3685,4.3685,4.3652,4.3672,4.3626,4.3648,4.3633,4.3624,4.3622,4.3618,4.3641,4.3602,4.3538,4.3531,4.3615,4.3616,4.3617,0,4.3857,4.3817,4.3782,4.3772,4.3751,4.3734,4.3723,4.3705,4.3689,4.3666,4.3656,4.3629,4.3613,4.3592,4.3585,4.36,4.3538,4.3558,4.3532,4.3533,4.3518,4.3519,4.345,4.3509,4.3509,4.3509,4.351,0,4.3799,4.3768,4.3764,4.3742,4.3707,4.3705,4.367,4.3661,4.3645,4.362,4.3624,4.36,4.3593,4.3567,4.3561,4.3524,4.3517,4.3511,4.351,4.351,4.3511,4.3499,4.3502,4.3507,4.3508,4.3508,4.3509,0,4.3746,4.3742,4.3705,4.3689,4.3684,4.3659,4.3644,4.3623,4.3616,4.3585,4.3578,4.3566,4.3537,4.3528,4.3492,4.3488,4.3444,4.3445,4.3451,4.3451,4.3426,4.3428,4.3346,4.3335,4.3402,4.3402,4.3401,0,4.371,4.3686,4.3669,4.3655,4.3645,4.362,4.3605,4.3603,4.3586,4.3562,4.3543,4.3515,4.3493,4.3445,4.3432,4.3405,4.3405,4.3379,4.3401,4.3403,4.3405,4.3406,4.3403,4.3374,4.3373,4.3373,4.3372,0,4.3645,4.3645,4.3624,4.3602,4.3585,4.3567,4.3549,4.3536,4.3531,4.3512,4.3484,4.3467,4.3432,4.3403,4.3376,4.3363,4.3366,4.3366,4.3358,4.3358,4.3363,4.336,4.3439,4.3367,4.3368,4.3368,4.3368,4.3368,4.3599,4.3579,4.3565,4.3541,4.3529,4.3513,4.3493,4.3485,4.3462,4.3435,4.3434,4.3403,4.3384,4.3348,4.3335,4.3309,4.3317,4.3306,4.3303,4.33,4.3299,4.3368,4.3304,4.3304,4.3305,4.3305,4.3305,0,4.3534,4.3526,4.3505,4.3482,4.3464,4.3472,4.3453,4.3437,4.341,4.3394,4.3372,4.334,4.3313,4.3299,4.3272,4.3254,4.3255,4.3247,4.3248,4.3245,4.3293,4.3302,4.3247,4.3247,4.3247,4.3247,4.3247,4.3247,4.3499,4.3466,4.3464,4.3425,4.3416,4.3388,4.3377,4.3362,4.3349,4.3314,4.3292,4.3285,4.3269,4.3241,4.3216,4.3212,4.3202,4.3193,4.319,4.3235,4.3241,4.3247,4.3255,4.3191,4.3191,4.3144,4.3143,4.3143]}]]